Temperature
10 9 9 9 9 10 10 10 10 9 9 9 9 8 9 9 9 9 9 9 9 9 9 9 9 8 8 8 8 8 8 8 8 8 7 7 7 7 7 7 7 7 7
9 8 9 9 9 9 9 9 9 9 9 9 8 8 8 8 8 8 8 8 8 8 8 8 8 8 8 8 8 8 8 8 7 7 6 6 7 7 7 7 7 7 7
9 8 8 8 9 9 9 9 9 9 9 8 8 8 8 8 8 8 8 8 8 8 8 8 8 8 8 8 8 7 7 7 7 7 6 6 7 6 6 6 6 6 6
8 8 8 8 8 8 8 9 9 9 8 8 8 8 8 8 8 8 8 8 8 8 8 8 7 7 7 7 7 7 7 7 6 6 6 6 6 5 5 6 6 6 6
7 7 8 8 8 8 8 8 8 8 8 8 8 8 7 7 8 8 8 7 7 7 7 7 7 7 7 7 7 7 7 6 6 6 6 5 5 5 5 5 5 5 6
7 7 7 7 7 7 8 8 8 8 8 8 7 7 7 7 7 7 7 7 7 7 7 7 7 7 7 7 6 6 6 6 6 6 5 5 5 4 4 4 4 4 5
7 6 6 6 7 7 7 7 7 7 7 7 7 7 7 7 7 7 7 7 7 7 7 7 7 7 6 6 6 6 6 6 6 5 5 5 5 5 4 4 4 4 4
6 6 6 6 6 6 6 7 7 7 7 7 7 7 7 7 7 7 7 7 7 7 7 7 6 6 6 6 6 6 6 5 5 5 5 5 4 4 4 4 3 3 3
6 5 5 6 6 6 6 6 6 7 7 7 7 7 7 6 6 6 6 6 6 6 6 6 6 6 6 6 5 5 5 5 5 5 4 4 4 4 4 3 3 3 3
5 5 5 5 6 6 6 6 6 6 6 6 6 6 6 6 6 6 6 6 6 6 6 6 6 6 5 5 5 5 5 5 4 4 4 4 4 3 3 3 3 2 2
5 5 5 5 5 5 6 6 6 6 6 6 6 6 6 6 5 5 5 5 5 5 5 5 5 5 5 5 5 4 4 4 4 4 4 4 3 3 3 3 3 2 2
5 5 5 5 5 5 5 5 5 5 5 5 5 5 5 5 5 5 5 5 5 5 5 5 5 5 5 4 4 4 4 4 4 3 3 3 3 3 3 2 2 2 2
4 4 4 5 5 5 5 5 5 5 5 5 5 5 5 5 5 5 5 5 5 5 4 4 4 4 4 4 4 4 4 3 3 3 3 3 2 2 2 2 2 2 2
4 4 4 4 4 4 4 4 4 4 4 4 4 4 4 4 4 4 4 4 4 4 4 4 4 4 4 4 4 3 3 3 3 3 2 2 2 2 2 2 2 1 1
4 4 4 4 4 4 4 4 4 4 4 4 4 4 4 4 4 4 4 4 4 4 4 4 3 3 3 3 3 3 3 3 2 2 2 2 2 2 1 1 1 1 1
4 3 4 4 4 4 3 3 3 3 4 4 4 4 4 4 4 4 4 4 3 3 3 3 3 3 3 3 3 3 2 2 2 2 2 2 1 1 1 1 1 1 0
3 3 3 3 3 3 3 3 3 3 3 3 3 3 3 3 3 3 3 3 3 3 3 3 3 3 3 3 3 2 2 2 1 1 1 1 1 1 1 1 0 0 0
3 3 3 3 3 3 3 3 3 3 3 3 3 3 3 3 3 3 3 2 2 2 2 2 2 2 2 2 2 2 1 1 1 1 1 1 0 0 0 0 0 0 -0
3 3 3 3 3 2 2 2 2 2 2 2 2 2 2 2 2 2 2 2 2 2 2 2 2 1 1 1 1 1 1 1 1 0 0 0 0 -0 -0 -0 -0 -0 -0
2 2 2 2 2 2 2 2 2 2 2 2 2 2 2 1 1 1 1 1 1 1 1 1 1 1 1 1 1 1 0 -0 -0 -0 -0 -0 -0 -0 -1 -1 -1 -1 -1
2 2 2 2 2 2 2 1 1 1 1 1 1 1 1 1 1 1 1 1 1 1 1 1 0 0 0 0 0 0 -0 -1 -1 -1 -1 -1 -1 -1 -1 -1 -1 -1 -1
2 2 2 2 2 2 1 1 1 1 1 1 1 1 1 1 1 1 0 0 0 0 -0 -0 -0 -0 -0 -0 -0 -0 -1 -1 -1 -1 -1 -1 -1 -1 -1 -1 -1 -2 -2
1 1 1 1 1 1 1 1 1 1 0 0 0 0 0 0 0 0 -0 -0 -0 -1 -1 -1 -1 -1 -1 -1 -1 -1 -1 -1 -2 -2 -2 -2 -2 -2 -2 -2 -2 -2 -2
0 1 1 1 1 1 0 0 0 0 0 0 0 -0 -0 -0 -0 -1 -1 -1 -1 -1 -1 -1 -1 -1 -2 -1 -1 -2 -2 -2 -2 -2 -2 -2 -2 -2 -2 -2 -3 -3 -3
-0 0 0 0 0 -0 -0 -0 -0 -0 -0 -0 -0 -0 -0 -1 -1 -1 -1 -1 -1 -1 -1 -2 -2 -2 -2 -2 -2 -2 -2 -2 -2 -2 -3 -3 -3 -3 -3 -3 -3 -3 -3
-0 -0 -0 -0 -0 -0 -1 -1 -1 -0 -0 -0 -1 -1 -1 -1 -1 -1 -1 -2 -2 -2 -2 -2 -2 -2 -2 -2 -2 -2 -2 -3 -3 -3 -3 -3 -3 -3 -3 -3 -3 -3 -3
Wind_Speed
10 9 9 9 9 9 9 10 10 10 8 7 7 6 5 5 4 4 5 5 5 5 4 3 3 3 2 2 2 2 1 0 0 1 1 2 2 3 2 2 2 2 2
9 9 9 9 10 10 10 10 10 10 10 8 7 5 5 4 4 4 4 5 5 5 4 4 3 3 3 3 3 2 1 1 1 1 1 2 2 3 3 2 2 2 2
9 9 9 9 9 10 11 10 10 10 10 9 7 5 4 3 3 4 4 5 5 6 5 5 4 4 3 3 3 3 2 2 1 1 1 2 3 2 2 2 2 2 2
8 8 8 9 9 9 9 10 10 10 10 10 9 10 7 6 6 5 5 5 6 6 6 6 5 4 4 4 4 3 3 3 2 1 2 2 2 3 2 2 2 3 3
6 6 6 8 8 8 8 8 9 9 9 10 10 10 8 6 5 5 6 6 5 6 6 6 5 5 4 4 4 4 4 3 3 3 2 2 2 4 4 4 3 3 3
4 4 4 4 5 6 7 7 9 9 9 10 10 10 9 8 7 7 6 5 4 5 6 6 5 5 5 5 5 4 5 4 4 3 3 2 2 3 4 5 5 4 3
3 3 3 4 4 6 6 7 8 8 9 10 10 10 9 9 9 8 7 6 5 5 6 6 6 5 5 5 5 5 5 5 5 4 3 3 3 3 4 4 5 5 4
3 3 4 4 4 5 6 7 8 8 9 9 9 9 8 7 6 7 7 7 5 5 6 6 6 6 5 5 5 4 4 4 4 4 4 3 3 3 3 4 4 5 4
2 2 3 3 4 5 6 7 8 8 8 8 8 8 8 7 7 6 6 5 5 5 6 6 6 5 5 5 5 4 5 5 5 4 4 4 3 3 3 4 4 4 5
1 1 2 3 3 4 5 5 6 7 7 8 8 6 7 7 7 6 6 6 5 5 5 5 5 5 5 5 5 5 5 5 4 4 4 4 3 3 3 3 4 5 5
2 2 2 2 3 3 4 5 5 6 6 6 7 7 7 7 7 6 6 6 5 5 5 5 5 5 5 5 5 5 5 5 4 4 5 5 4 4 3 3 4 4 5
2 2 2 2 3 3 4 5 5 5 5 5 6 6 6 6 6 6 6 6 6 5 5 5 5 5 5 6 6 5 5 5 5 5 5 5 4 5 4 4 4 4 5
2 2 2 2 3 3 3 4 4 4 4 5 6 6 6 6 6 6 6 6 6 5 5 5 5 5 6 6 6 5 5 5 5 5 5 4 4 5 4 4 4 4 4
4 3 3 2 2 3 3 4 4 4 4 5 6 6 6 6 6 5 5 5 5 5 5 5 5 5 5 6 5 5 5 5 5 5 5 5 5 5 5 4 5 4 4
5 4 4 3 3 3 3 3 4 4 4 5 6 6 5 5 5 5 5 4 5 5 5 5 4 4 4 5 5 5 5 5 4 4 5 5 5 6 5 4 5 5 4
6 5 4 4 4 4 4 4 4 4 5 5 5 5 5 5 5 5 4 4 4 4 4 5 4 4 4 5 6 5 5 5 5 5 4 4 5 6 7 7 7 6 6
7 6 5 5 4 4 4 5 4 4 5 5 5 5 5 5 5 5 5 5 5 5 5 4 4 4 4 5 6 6 4 4 4 5 4 4 4 6 5 6 6 7 7
7 6 5 5 5 4 4 4 4 5 5 5 5 5 5 5 5 5 5 5 5 5 5 4 4 4 4 5 5 6 4 4 4 5 5 5 5 5 5 4 5 5 6
6 6 5 5 4 4 4 4 5 5 5 6 6 5 6 6 6 6 6 5 5 5 5 4 4 4 4 5 5 5 4 4 5 5 5 5 5 4 5 5 5 5 5
5 4 4 4 4 4 4 5 5 5 6 6 6 6 6 6 7 7 6 5 5 5 5 5 5 5 4 5 5 5 3 4 4 4 4 5 6 6 6 5 5 6 5
5 4 4 4 4 4 4 5 5 6 6 5 5 5 6 6 7 6 5 5 5 5 5 5 4 5 5 5 6 6 4 4 4 4 4 4 6 6 6 7 6 6 5
4 4 3 3 3 4 5 6 6 5 4 5 5 5 5 5 5 6 5 5 6 5 5 4 4 4 4 5 6 6 6 5 5 5 4 4 5 6 6 6 5 4 4
4 3 3 3 3 4 5 6 5 4 4 5 5 5 5 5 5 6 6 5 5 5 5 4 4 4 3 4 6 7 7 7 5 4 5 5 5 5 5 4 4 4 3
5 4 3 3 4 4 5 6 5 5 5 5 5 5 5 5 5 5 5 5 5 5 5 5 4 4 4 4 4 4 4 5 4 4 4 4 4 3 3 3 3 3 3
5 4 3 4 4 4 4 5 5 5 5 5 5 5 5 5 5 5 5 6 5 6 6 5 5 5 5 5 5 4 4 4 3 3 2 2 2 2 2 3 2 2 2
5 4 4 4 4 4 4 4 4 5 6 5 5 4 4 4 4 4 3 4 5 5 6 6 5 5 6 5 6 6 4 4 4 3 3 3 3 3 3 3 3 3 3
Wind_Direction
243 235 227 219 213 209 205 200 197 192 185 182 184 185 187 184 186 187 188 188 185 183 185 179 180 185 186 193 187 179 170 194 267 251 264 253 242 246 264 267 268 271 280
244 235 224 215 210 207 205 200 196 194 190 189 188 192 186 190 188 184 188 188 187 184 188 188 188 188 187 187 184 177 207 220 243 253 257 248 230 219 253 252 264 274 270
242 236 224 218 211 206 203 199 195 192 191 187 181 172 169 167 177 186 189 190 190 190 190 192 192 190 191 192 191 194 202 208 227 265 254 247 250 282 219 243 259 272 288
243 237 226 218 212 206 199 195 193 190 189 187 185 184 191 195 199 193 190 186 191 197 196 194 194 192 194 195 194 197 204 199 206 231 259 277 292 268 262 235 253 276 279
241 234 229 225 219 205 195 192 189 188 188 190 192 194 199 199 190 186 186 188 190 198 199 196 195 194 196 197 193 193 201 204 209 213 229 251 266 266 264 273 277 276 276
236 232 226 221 214 200 192 188 186 188 189 191 194 199 199 193 186 189 191 192 192 196 198 198 198 200 199 196 198 195 200 204 209 213 216 231 243 249 256 267 277 282 287
234 224 215 210 203 195 191 190 188 189 190 193 197 200 200 196 195 194 197 196 195 199 199 198 201 200 201 199 199 198 203 205 206 212 219 226 241 252 257 263 276 282 289
242 227 216 207 202 195 192 192 192 192 192 196 198 199 198 199 199 196 195 197 199 202 201 200 202 200 199 198 197 199 203 207 210 215 220 229 236 240 249 254 264 274 276
263 242 226 211 204 196 195 196 195 194 195 197 197 196 194 199 199 197 197 198 198 196 196 199 199 198 198 198 195 202 203 206 213 219 222 231 240 241 245 249 253 258 270
288 264 239 224 216 205 198 199 198 197 194 195 197 197 195 198 197 194 195 195 194 191 194 199 200 197 196 196 198 203 205 207 213 219 224 231 236 236 237 242 249 252 259
286 275 263 239 217 202 197 194 195 196 192 192 194 194 193 193 194 195 197 196 192 189 194 198 201 200 198 196 200 205 205 209 214 218 225 232 233 235 235 238 243 247 252
282 285 276 240 202 193 192 190 190 191 193 192 191 191 191 189 192 196 195 192 191 189 192 194 200 202 201 200 201 203 206 209 214 219 224 231 233 235 238 241 246 250 253
290 296 282 248 207 194 191 191 189 189 190 187 187 187 188 189 194 195 192 189 188 186 186 193 199 204 202 201 203 204 208 213 217 220 223 229 231 238 241 244 250 256 261
284 292 283 264 232 213 201 196 197 192 189 187 187 189 191 192 194 192 192 189 189 188 189 196 202 204 203 201 200 203 208 215 221 227 230 232 234 241 243 246 251 254 259
283 281 275 266 244 226 213 207 204 199 191 190 192 194 192 189 188 187 188 187 189 193 192 196 199 200 201 202 201 203 208 213 222 230 235 237 244 250 249 248 249 249 253
277 274 270 264 249 235 224 217 210 203 194 194 199 195 188 183 185 186 183 184 189 191 191 196 199 203 208 202 206 209 210 215 222 232 240 244 244 246 248 252 253 250 248
268 267 261 254 247 240 228 222 215 202 199 198 198 194 188 186 187 184 182 188 192 190 192 197 201 209 207 204 209 211 215 221 229 236 242 246 247 247 250 250 249 250 255
266 267 261 252 247 239 229 222 212 204 205 203 200 197 192 192 190 188 191 196 195 195 198 199 205 211 211 210 211 208 216 228 236 239 243 245 247 245 249 251 252 256 255
265 264 260 249 242 235 222 212 208 206 207 207 204 201 198 197 196 198 201 200 198 199 200 201 206 212 216 209 212 214 218 228 239 242 244 244 248 244 247 250 254 261 264
277 270 263 246 233 230 216 212 214 214 216 215 211 207 204 202 203 204 204 203 202 203 197 202 207 211 217 212 214 221 222 231 240 245 244 243 249 245 244 248 248 253 262
294 276 255 242 231 223 212 216 219 226 226 219 213 208 208 208 206 204 203 199 201 201 201 205 212 216 220 214 213 219 226 231 239 246 251 249 244 249 249 255 253 253 262
303 283 257 242 233 221 213 220 227 228 223 215 211 207 206 207 205 201 199 197 195 197 203 207 215 219 219 222 219 224 236 245 242 246 253 254 248 252 258 259 253 253 259
308 296 260 250 241 226 220 226 233 226 218 212 211 208 203 203 203 201 197 196 196 200 205 209 216 220 220 223 227 232 234 239 249 253 256 259 255 257 256 245 235 239 243
302 295 266 250 251 239 230 232 233 222 211 211 212 208 200 201 201 201 200 199 200 203 206 212 219 222 223 222 222 230 233 233 244 251 240 241 244 257 253 234 230 240 240
294 285 269 259 257 249 243 235 226 212 208 209 208 205 203 200 200 203 207 209 213 213 213 217 220 222 229 231 233 236 237 233 232 233 242 234 237 247 243 237 239 241 239
285 278 269 263 258 245 244 236 220 208 203 204 205 202 198 196 198 199 207 216 222 223 231 234 233 236 246 238 227 231 232 228 210 212 224 229 234 238 237 235 240 239 238
Height
1472 1473 1474 1475 1476 1478 1480 1482 1484 1487 1489 1491 1493 1495 1497 1499 1500 1501 1503 1504 1506 1507 1508 1509 1510 1510 1511 1512 1512 1513 1513 1514 1514 1515 1515 1514 1514 1514 1514 1514 1514 1514 1513
1468 1468 1469 1470 1471 1473 1476 1478 1480 1482 1485 1487 1490 1492 1494 1495 1497 1498 1500 1501 1503 1504 1505 1506 1507 1508 1508 1509 1509 1510 1511 1511 1512 1513 1513 1513 1514 1512 1511 1511 1511 1511 1510
1462 1463 1464 1465 1467 1468 1470 1473 1475 1478 1481 1484 1486 1488 1490 1492 1493 1495 1496 1498 1500 1501 1502 1503 1504 1505 1505 1506 1507 1507 1508 1508 1509 1510 1512 1512 1511 1510 1509 1508 1508 1507 1507
1459 1459 1460 1461 1462 1464 1467 1469 1471 1474 1477 1480 1482 1484 1486 1488 1489 1491 1493 1495 1496 1498 1499 1500 1501 1502 1502 1503 1504 1504 1505 1505 1506 1507 1508 1509 1509 1509 1506 1505 1505 1504 1503
1455 1455 1456 1457 1459 1461 1463 1465 1468 1470 1473 1476 1478 1480 1483 1485 1487 1488 1490 1492 1493 1495 1496 1497 1498 1498 1499 1500 1500 1501 1502 1502 1503 1504 1504 1505 1505 1505 1505 1502 1501 1501 1500
1452 1452 1453 1454 1455 1457 1459 1461 1464 1466 1469 1472 1474 1476 1479 1481 1483 1485 1486 1488 1489 1491 1492 1494 1495 1495 1496 1497 1497 1498 1498 1499 1500 1500 1501 1501 1502 1501 1501 1500 1498 1497 1497
1449 1450 1450 1451 1451 1453 1455 1457 1460 1462 1465 1468 1470 1472 1475 1477 1479 1481 1483 1484 1486 1487 1488 1490 1491 1492 1493 1493 1494 1494 1495 1495 1496 1496 1497 1498 1498 1498 1498 1497 1496 1494 1493
1447 1447 1447 1448 1449 1450 1452 1454 1456 1459 1461 1464 1466 1469 1471 1473 1475 1477 1479 1480 1482 1483 1485 1486 1487 1488 1489 1490 1491 1491 1492 1492 1493 1493 1493 1494 1494 1494 1494 1494 1493 1491 1490
1445 1445 1445 1446 1447 1448 1449 1451 1453 1455 1458 1460 1463 1465 1467 1469 1471 1473 1475 1477 1478 1480 1481 1482 1483 1484 1485 1486 1487 1487 1488 1489 1489 1489 1490 1490 1491 1490 1490 1490 1490 1490 1488
1443 1443 1443 1444 1445 1446 1447 1449 1451 1453 1455 1457 1459 1461 1463 1466 1468 1470 1471 1473 1474 1476 1477 1478 1479 1480 1481 1482 1483 1484 1485 1485 1486 1486 1487 1487 1487 1487 1486 1486 1486 1486 1485
1442 1441 1441 1442 1442 1444 1445 1446 1448 1450 1452 1454 1456 1458 1460 1462 1464 1466 1467 1469 1470 1472 1473 1474 1476 1477 1477 1478 1479 1480 1481 1481 1482 1482 1483 1483 1483 1483 1483 1482 1482 1482 1481
1441 1440 1440 1440 1440 1441 1442 1444 1445 1447 1448 1450 1452 1454 1457 1459 1460 1462 1464 1465 1467 1468 1470 1471 1472 1473 1474 1475 1476 1476 1477 1477 1478 1478 1479 1479 1479 1479 1479 1479 1478 1478 1477
1439 1439 1438 1438 1438 1439 1440 1441 1442 1444 1446 1447 1449 1451 1453 1455 1457 1459 1460 1462 1463 1464 1466 1467 1468 1469 1470 1471 1472 1472 1473 1474 1474 1474 1475 1475 1475 1475 1475 1475 1474 1474 1473
1437 1437 1436 1436 1437 1437 1438 1438 1440 1441 1443 1445 1446 1448 1450 1452 1454 1455 1457 1458 1460 1461 1462 1464 1465 1466 1467 1467 1468 1468 1469 1470 1470 1471 1471 1471 1471 1471 1471 1471 1470 1470 1470
1435 1435 1434 1434 1434 1435 1435 1436 1437 1439 1440 1442 1443 1445 1447 1449 1451 1452 1453 1455 1456 1458 1459 1460 1461 1462 1463 1463 1464 1465 1465 1466 1466 1467 1467 1467 1467 1467 1467 1467 1467 1467 1466
1433 1433 1432 1432 1432 1432 1433 1433 1434 1435 1437 1438 1440 1442 1444 1445 1447 1449 1450 1451 1453 1454 1455 1456 1457 1458 1459 1460 1461 1461 1461 1462 1462 1463 1463 1463 1464 1463 1463 1463 1463 1463 1462
1430 1430 1430 1430 1430 1430 1430 1431 1431 1432 1434 1435 1437 1438 1440 1441 1443 1445 1446 1447 1449 1450 1451 1452 1453 1454 1455 1456 1457 1457 1458 1458 1458 1459 1459 1459 1459 1459 1459 1458 1458 1458 1458
1427 1427 1427 1427 1427 1428 1428 1428 1429 1429 1430 1432 1433 1435 1436 1438 1440 1441 1443 1444 1445 1446 1447 1448 1450 1450 1451 1452 1453 1454 1454 1454 1455 1455 1455 1455 1455 1455 1455 1455 1454 1454 1454
1424 1424 1424 1424 1424 1425 1425 1425 1425 1426 1427 1428 1430 1431 1433 1434 1436 1437 1439 1440 1441 1442 1443 1445 1445 1446 1447 1449 1449 1450 1450 1450 1451 1451 1451 1451 1451 1451 1451 1451 1450 1450 1450
1421 1421 1421 1421 1421 1421 1422 1422 1422 1423 1424 1425 1426 1428 1429 1431 1432 1433 1435 1436 1437 1438 1440 1441 1442 1443 1443 1444 1445 1446 1446 1446 1446 1447 1447 1447 1447 1447 1447 1447 1446 1446 1445
1418 1418 1418 1417 1418 1418 1419 1419 1419 1420 1421 1422 1423 1424 1426 1427 1428 1430 1431 1432 1433 1435 1436 1437 1438 1439 1440 1440 1441 1442 1442 1442 1442 1442 1442 1442 1443 1443 1443 1443 1442 1442 1442
1415 1415 1414 1414 1415 1415 1415 1415 1416 1416 1418 1418 1419 1420 1422 1423 1424 1425 1426 1428 1429 1430 1431 1432 1433 1434 1435 1436 1437 1438 1438 1439 1439 1438 1438 1438 1438 1438 1438 1438 1438 1438 1438
1413 1412 1412 1411 1411 1412 1412 1412 1412 1413 1414 1415 1415 1417 1418 1419 1420 1421 1422 1423 1425 1426 1427 1428 1429 1430 1431 1432 1433 1434 1434 1434 1435 1434 1434 1434 1434 1434 1434 1434 1434 1434 1434
1410 1409 1409 1408 1408 1408 1408 1409 1409 1409 1410 1411 1412 1413 1414 1415 1416 1417 1418 1419 1420 1422 1423 1424 1425 1426 1427 1427 1428 1429 1430 1430 1430 1430 1431 1431 1430 1430 1430 1430 1430 1430 1430
1407 1406 1405 1405 1404 1404 1404 1405 1405 1405 1406 1407 1408 1409 1410 1411 1412 1413 1415 1416 1417 1418 1419 1420 1421 1422 1422 1423 1424 1425 1425 1426 1426 1427 1427 1426 1426 1426 1426 1426 1426 1426 1426
1403 1403 1402 1402 1401 1401 1401 1401 1401 1402 1402 1403 1404 1405 1406 1408 1409 1410 1411 1412 1414 1415 1416 1417 1418 1418 1419 1420 1420 1421 1422 1422 1423 1423 1423 1422 1422 1422 1423 1423 1423 1422 1422